This is the latest recevied weather packets stored in our database for station/object BG5HLN-13. If no packets are shown the sender has not sent any weather packets the latest 10 day(s).
| Time | Temp. | Humidity | Pressure | Rain* | Wind** | Luminosity | Snow |
|---|---|---|---|---|---|---|---|
| 1777540227 | 20° C | 49% | 1015.8 hPa | 0 mm | - | - | - |
| 1777539627 | 20° C | 48% | 1015.8 hPa | 0 mm | - | - | - |
| 1777539027 | 20° C | 49% | 1015.7 hPa | 0 mm | - | - | - |
| 1777539025 | 20° C | 49% | 1015.8 hPa | 0 mm | - | - | - |
| 1777538427 | 20.56° C | 52% | 1015.8 hPa | 0 mm | - | - | - |
| 1777537827 | 20.56° C | 52% | 1015.8 hPa | 0 mm | - | - | - |
| 1777537226 | 21.11° C | 52% | 1015.9 hPa | 0 mm | - | - | - |
| 1777536626 | 21.11° C | 52% | 1015.9 hPa | 0 mm | - | - | - |
| 1777536026 | 21.11° C | 54% | 1015.9 hPa | 0 mm | - | - | - |
| 1777535424 | 21.11° C | 50% | 1015.9 hPa | 0 mm | - | - | - |
| 1777534824 | 21.11° C | 52% | 1015.9 hPa | 0 mm | - | - | - |
| 1777534222 | 21.11° C | 51% | 1015.8 hPa | 0 mm | - | - | - |
| 1777533259 | 22.22° C | 52% | 1015.9 hPa | 0 mm | - | - | - |
| 1777532659 | 22.22° C | 51% | 1016 hPa | 0 mm | - | - | - |
| 1777532060 | 22.22° C | 53% | 1016.2 hPa | 0 mm | - | - | - |
| 1777531460 | 22.22° C | 55% | 1016.3 hPa | 0 mm | - | - | - |
| 1777530860 | 22.22° C | 54% | 1016.5 hPa | 0 mm | - | - | - |
| 1777530260 | 21.11° C | 53% | 1016.8 hPa | 0 mm | - | - | - |
| 1777529659 | 21.67° C | 55% | 1017 hPa | 0 mm | - | - | - |
| 1777529060 | 21.11° C | 55% | 1017.1 hPa | 0 mm | - | - | - |
| 1777528463 | 21.11° C | 56% | 1017.2 hPa | 0 mm | - | - | - |
| 1777528459 | 21.11° C | 56% | 1017.1 hPa | 0 mm | - | - | - |
| 1777527860 | 20.56° C | 56% | 1017.3 hPa | 0 mm | - | - | - |
| 1777527259 | 20.56° C | 55% | 1017.4 hPa | 0 mm | - | - | - |
| 1777526659 | 20.56° C | 53% | 1017.6 hPa | 0 mm | - | - | - |
* Rain latest hour (hover to see other rain measurements)
** Current wind speed in m/s (hover to see current wind gust speed)